User: anonymous   Login
Location: Freistadt
(48.5112°N, 14.5013°E)
Time: 02:22:43
(UTC+02:00)
Language:

MOZHAYETS 4 - Orbit

View from above orbital plane
View from above orbital plane
View from above satellite
View from above satellite

Ground track
Ground track

The orbit data is extracted from the following two-line orbital elements,

1 27939U 03042A   24176.85010861  .00001392  00000-0  24047-3 0  9993
2 27939  98.2918 333.1710 0012677  41.1679  92.9831 14.70004744109405
Epoch (UTC): 24 June 2024 20:24:09
Eccentricity: 0.0012677
inclination: 98.2918°
perigee height: 652 km
apogee height: 670 km
right ascension of ascending node: 333.1710°
argument of perigee: 41.1679°
revolutions per day: 14.70004744
mean anomaly at epoch: 92.9831°
orbit number at epoch: 10940

The dashed part of the orbit path shows where the satellite is in the earth's shadow,  

DLR